Theta_e
318 318 318 318 318 318 319 319 318 319 318 318 317 318 318 317 318 321 313 313 318 329 325 316 316 315 315 314 315 314 307 305 303 306 308 312 311 316 323 331 335 338 336 342 348
318 318 318 318 318 318 318 318 319 318 319 318 317 317 317 317 319 315 320 328 333 332 315 313 311 313 312 312 313 311 307 305 309 310 309 311 311 312 316 330 331 331 339 345 348
317 317 317 317 317 317 318 318 318 319 319 318 317 317 317 319 317 315 334 329 332 326 316 314 314 313 310 312 311 310 308 308 309 310 311 310 311 313 314 318 320 318 330 340 344
317 317 317 316 317 317 317 318 318 318 318 318 317 317 317 321 306 319 340 334 332 322 315 312 311 309 308 307 310 306 308 309 309 310 309 309 311 311 312 314 316 315 319 335 341
316 316 316 316 316 316 317 317 318 318 318 317 318 317 319 314 312 327 337 332 322 317 313 312 310 309 306 308 308 307 307 308 309 310 310 311 309 310 311 314 316 317 320 326 333
316 315 315 315 315 316 317 317 317 317 317 318 320 317 318 308 318 323 321 318 318 316 312 313 312 313 309 308 307 308 308 308 309 309 310 308 309 309 312 316 316 316 316 319 326
316 315 315 315 315 316 317 317 316 317 317 320 320 320 315 312 323 322 319 317 316 316 313 314 315 312 311 307 310 308 306 307 307 308 308 309 306 307 313 315 315 316 317 318 320
315 315 314 314 315 316 316 316 318 317 319 321 320 322 312 317 325 320 319 318 317 315 315 315 316 313 311 311 308 305 306 303 307 307 307 309 303 309 313 314 313 315 316 317 319
315 314 314 314 315 315 315 315 319 319 320 321 324 321 312 318 317 321 321 315 317 315 316 314 315 311 310 306 304 305 302 301 303 308 308 307 305 310 314 314 313 317 320 321 318
315 314 314 314 314 314 314 315 319 319 322 323 321 314 315 312 317 318 320 318 314 313 312 311 311 308 309 306 299 301 301 302 302 307 308 306 306 310 313 314 317 322 326 327 324
315 314 314 314 314 314 316 321 317 315 316 310 311 310 312 317 319 315 317 315 314 312 307 309 307 305 304 306 305 304 302 301 304 307 306 306 307 309 312 316 319 324 328 332 331
314 314 314 314 313 313 318 314 312 314 309 312 313 313 315 317 310 313 317 310 309 305 307 307 303 305 306 305 304 303 302 302 305 307 306 306 305 309 311 317 321 323 326 329 333
313 313 313 313 312 316 317 314 319 316 311 309 313 312 313 316 309 310 314 311 307 304 305 304 304 306 305 304 303 303 301 301 301 305 307 305 303 306 311 316 319 322 324 325 326
313 313 313 311 313 320 316 318 319 317 305 304 308 311 312 313 308 313 314 311 308 303 304 304 306 304 303 302 304 301 303 303 302 301 297 304 296 304 308 310 315 319 321 323 322
312 313 312 311 320 317 316 320 319 317 294 306 307 314 311 308 308 309 315 312 305 305 305 303 303 303 302 302 304 301 304 303 302 300 300 300 298 303 306 307 311 315 319 319 316
312 312 311 316 321 316 320 319 319 306 294 302 306 305 305 307 307 310 310 313 311 306 306 305 308 305 304 305 304 304 302 302 302 300 294 300 299 301 306 307 310 314 317 317 316
311 311 314 318 315 321 321 317 305 298 304 300 301 304 304 303 304 306 305 305 304 300 301 303 303 305 305 302 304 303 300 294 293 294 295 301 297 303 308 310 312 313 315 314 315
309 308 313 319 322 321 320 309 297 299 300 303 303 303 301 303 303 304 303 302 305 304 300 298 296 302 303 301 299 300 299 293 287 290 294 299 293 303 309 313 314 315 315 314 312
306 324 324 320 321 321 314 301 301 300 302 301 303 300 300 302 302 302 302 301 303 304 299 298 297 303 303 304 303 300 298 303 295 297 293 297 299 307 310 310 311 312 313 311 312
321 321 318 320 321 320 309 299 301 303 303 304 299 301 298 300 300 300 300 303 301 303 306 302 295 300 301 304 305 302 304 296 298 288 287 293 294 297 303 304 308 309 311 311 313
321 314 317 320 321 315 305 302 303 305 305 303 301 300 300 299 299 299 298 301 302 302 305 303 299 297 299 299 298 300 299 299 299 296 291 289 294 306 303 306 307 310 312 313 313
317 310 317 320 311 311 305 304 300 303 306 304 304 302 301 300 299 298 297 301 303 304 299 303 300 295 296 303 304 301 299 299 294 292 296 294 293 305 307 307 309 310 312 315 315
310 310 317 317 303 303 304 303 305 304 304 303 302 303 304 301 297 299 300 304 303 303 301 303 298 293 295 298 302 298 300 300 300 299 292 291 294 307 306 306 307 308 312 314 316
312 305 310 310 309 304 301 301 301 305 303 303 303 304 302 300 302 299 299 303 304 304 302 305 301 297 292 295 298 296 297 299 299 294 294 294 296 301 302 303 306 308 311 314 314
310 305 305 301 303 303 303 301 299 299 305 305 302 302 301 298 299 299 301 302 304 304 304 304 297 299 298 298 298 296 296 296 295 297 294 296 296 300 302 304 306 308 311 311 313
308 307 307 305 302 302 299 302 299 300 301 300 300 301 302 300 301 299 301 302 301 304 303 305 296 298 295 297 297 294 296 296 296 296 297 297 297 303 305 306 306 308 310 310 313
312 312 308 298 302 302 303 301 300 300 302 303 302 302 301 302 305 306 307 307 306 303 302 301 298 296 291 294 293 289 294 295 296 298 298 294 299 304 303 304 308 310 313 311 313
Wind_Speed
18 18 18 17 16 15 14 13 11 11 10 10 8 9 9 9 13 7 2 5 2 3 5 6 7 7 7 5 4 4 7 5 5 7 5 4 6 10 3 3 3 5 10 10 17
18 18 18 17 17 15 14 13 11 11 10 9 8 8 7 7 8 6 5 5 4 4 7 7 7 9 7 5 5 8 7 3 3 2 4 6 6 7 4 7 7 10 10 12 15
18 18 18 18 17 15 14 13 12 11 10 8 8 7 6 9 8 6 4 6 6 7 5 3 5 8 7 6 4 4 3 3 3 4 6 8 7 6 5 6 11 8 9 10 11
19 18 18 17 17 16 15 14 13 11 10 7 6 7 4 7 2 7 4 8 6 6 6 6 7 8 7 8 5 7 1 2 1 1 6 7 9 8 4 11 9 3 3 7 10
19 19 18 18 17 16 15 14 13 11 8 6 6 5 7 8 10 7 8 8 9 6 6 6 7 5 7 4 6 8 4 2 3 6 6 8 9 7 10 7 8 5 1 3 7
18 19 19 18 17 17 15 14 12 9 6 6 5 4 7 7 3 6 8 7 5 6 4 4 3 1 4 3 6 2 2 3 4 6 5 8 8 6 3 9 8 5 4 5 7
18 18 19 18 18 18 16 14 11 7 4 4 5 6 6 9 2 7 3 2 3 3 6 3 2 7 3 6 1 2 9 5 2 2 2 7 12 11 6 8 10 8 7 6 9
19 18 18 18 18 17 16 13 7 0 1 4 5 5 7 4 3 6 5 4 2 2 3 1 2 4 3 2 5 5 7 8 7 3 4 6 7 2 5 7 9 9 9 9 11
20 18 18 18 17 16 14 11 1 1 3 5 6 7 9 5 4 4 5 5 6 3 4 2 3 1 6 9 8 6 4 3 5 3 4 3 7 2 6 6 6 7 9 11 11
21 19 18 18 17 14 12 5 2 6 7 6 5 6 6 7 5 6 5 6 4 8 8 6 6 7 6 8 7 1 5 5 4 4 6 8 8 6 5 6 7 10 11 13 11
22 20 18 16 16 11 7 5 7 6 6 5 5 3 6 4 4 5 5 8 7 6 3 5 7 6 5 4 4 1 3 4 2 3 9 8 9 9 3 7 9 11 14 16 12
22 21 18 15 14 10 7 3 6 6 3 1 1 2 1 1 8 7 5 5 6 5 5 8 8 4 2 2 2 4 5 1 8 2 9 11 14 11 3 7 11 14 15 16 16
22 20 17 13 11 6 7 7 6 2 5 6 1 1 4 5 5 8 5 3 3 5 3 5 7 2 3 3 5 0 7 5 9 11 16 7 17 11 9 9 11 13 14 16 17
23 19 14 12 2 2 3 6 7 5 6 9 8 5 6 1 5 2 2 2 2 5 1 5 3 1 2 0 7 7 5 8 11 11 8 4 5 11 10 8 12 14 15 16 18
23 18 11 6 2 1 6 8 1 5 6 10 6 3 2 3 4 5 1 5 1 3 6 8 1 1 3 4 6 6 11 12 13 14 14 13 7 10 6 7 12 14 15 15 15
22 16 11 4 1 5 7 3 5 8 4 7 3 5 8 1 3 3 4 2 2 3 2 5 2 3 5 3 3 8 11 16 11 9 11 7 6 6 7 7 11 12 13 13 13
21 14 8 5 6 8 6 5 7 7 4 5 3 2 3 2 3 1 2 5 7 6 8 7 3 2 4 8 7 8 10 7 7 8 1 5 8 11 8 8 9 11 12 11 13
20 8 3 3 6 7 5 6 7 3 1 3 2 5 3 2 3 1 4 7 2 6 9 9 8 3 2 5 8 6 7 7 7 7 6 8 6 9 7 5 6 7 8 8 12
18 4 1 10 5 5 7 8 5 2 2 2 5 6 5 4 4 4 3 4 4 4 6 5 3 5 3 2 5 5 6 7 9 6 8 4 5 10 4 2 4 6 6 7 10
4 3 7 14 5 6 6 5 2 3 2 3 5 3 4 2 5 3 2 3 4 3 3 4 9 3 4 5 3 8 4 6 7 5 5 5 5 5 3 7 6 6 4 5 10
4 4 9 13 4 5 1 5 4 5 4 5 0 2 1 1 3 2 2 6 1 3 2 3 4 7 4 8 4 6 8 4 6 5 5 5 2 6 4 3 6 7 2 7 9
4 1 10 8 2 2 4 3 2 1 1 0 1 0 1 0 2 3 2 2 1 2 4 4 6 9 5 5 2 5 5 6 5 5 6 6 7 8 1 5 7 9 4 6 9
3 3 6 10 2 4 3 2 2 2 2 1 2 3 2 2 4 4 3 4 2 3 1 3 4 8 10 8 8 9 8 8 7 7 10 10 5 6 4 10 12 10 8 10 10
4 1 4 5 3 5 3 2 1 3 0 2 1 3 5 5 4 2 5 5 1 3 4 1 10 12 12 14 7 8 10 11 12 11 11 15 17 15 13 13 11 10 10 12 12
4 4 4 4 5 4 3 2 2 0 2 1 4 7 6 4 5 7 3 4 7 7 5 6 14 15 15 15 13 15 17 17 18 18 18 17 19 16 15 14 12 10 12 11 13
3 3 3 3 1 4 1 1 3 1 3 2 5 2 5 8 7 6 5 6 7 5 9 6 11 9 15 14 14 20 21 20 20 19 20 19 20 15 8 12 12 12 10 9 10
2 2 5 4 1 4 3 1 2 5 4 4 3 6 6 3 5 7 7 9 9 10 9 10 8 8 12 6 10 14 18 19 17 15 13 13 9 10 11 11 11 11 9 4 3
Wind_Direction
346 347 345 340 340 337 334 329 328 320 319 314 312 301 306 310 288 220 238 27 283 345 224 152 192 188 210 168 213 252 241 201 132 195 81 23 346 26 19 199 145 87 60 102 147
345 345 339 339 337 333 330 324 319 317 314 314 306 297 296 306 265 210 76 119 104 163 218 200 176 189 193 186 180 248 264 105 49 27 316 322 334 357 312 165 145 127 99 122 152
343 341 338 337 333 329 326 321 318 315 311 311 302 292 287 283 246 73 69 188 221 246 253 231 185 207 198 204 168 169 291 124 162 329 318 313 291 332 315 130 45 48 106 148 164
342 339 337 334 331 326 321 321 317 313 307 301 295 281 276 242 125 41 332 174 201 240 194 175 193 198 196 192 175 219 137 231 49 343 311 307 326 300 317 17 341 24 29 152 181
339 337 336 332 328 323 321 320 314 310 304 292 284 268 241 203 77 73 117 149 182 204 194 191 192 194 184 146 180 243 155 201 248 287 296 303 282 323 284 13 351 20 326 211 213
335 338 335 332 327 326 325 320 313 307 296 275 263 238 247 127 77 131 123 159 186 210 166 206 185 257 140 145 257 68 257 263 273 290 268 277 273 283 160 348 329 331 307 254 244
336 334 334 332 329 329 328 325 316 301 264 250 192 251 252 81 115 149 183 83 121 178 156 107 63 248 173 160 103 207 258 188 171 10 109 314 251 229 280 332 317 310 313 299 268
335 332 332 332 330 328 328 327 328 227 161 156 199 253 79 110 122 193 186 142 153 114 64 82 278 104 306 98 196 241 241 215 125 285 125 290 263 71 284 346 307 313 325 322 283
331 330 330 329 327 326 324 319 347 173 154 177 232 261 106 132 175 125 195 135 145 155 104 132 254 24 187 223 200 196 226 255 173 115 321 254 315 298 299 317 326 342 341 339 308
329 329 328 324 323 322 317 284 140 184 200 227 259 224 163 77 94 126 135 164 151 147 164 206 203 201 207 226 258 120 232 198 260 103 295 260 268 307 39 331 13 8 4 0 349
329 328 325 320 319 318 283 202 204 175 211 352 40 23 105 99 197 156 161 163 169 224 177 188 215 54 41 20 33 20 272 286 311 80 297 276 285 282 22 22 25 20 17 8 4
331 330 325 319 313 310 263 53 40 353 150 127 359 258 232 275 136 137 207 208 214 130 166 204 84 69 86 149 234 252 269 293 273 311 301 287 290 279 73 50 42 28 27 12 7
335 332 325 317 308 268 63 53 334 240 227 136 69 116 95 228 107 130 231 142 119 160 188 30 70 142 226 184 249 215 321 330 313 309 268 278 264 215 131 82 46 36 36 18 4
339 337 331 322 265 103 79 340 312 230 207 144 167 115 174 202 129 1 347 315 188 114 163 71 78 171 255 72 297 267 12 289 296 304 304 26 298 183 153 132 40 25 28 24 9
343 343 335 342 42 256 5 327 305 228 217 146 139 66 163 285 96 121 40 232 272 126 255 90 180 324 277 35 326 355 319 293 292 288 289 248 244 112 142 125 19 16 27 22 17
341 339 324 242 212 24 316 302 231 227 173 148 151 177 195 119 105 129 181 153 360 225 294 99 109 341 12 254 302 305 284 279 277 254 238 90 273 101 56 13 4 17 30 23 31
337 329 314 298 354 337 308 218 218 263 139 143 143 195 155 113 114 319 213 191 272 244 194 167 179 150 318 269 185 301 302 273 227 199 318 121 268 58 86 36 19 18 31 33 44
330 308 142 358 323 310 240 221 246 63 106 112 153 136 205 332 113 155 213 219 124 274 284 277 196 203 14 355 325 317 318 303 290 295 334 182 249 98 67 71 43 43 58 51 56
315 197 274 360 322 280 243 228 40 54 56 176 163 219 155 142 306 243 285 310 22 348 280 287 198 135 29 343 300 96 260 18 287 229 261 227 133 146 107 84 46 36 59 71 75
301 257 41 344 310 246 236 53 114 39 337 243 243 285 209 141 246 252 201 86 124 37 344 64 279 164 107 257 137 292 49 215 194 261 263 203 253 275 94 2 6 19 65 112 113
259 235 26 346 255 240 174 79 105 56 353 338 4 183 52 358 318 297 58 106 317 113 336 315 256 135 216 209 300 175 204 241 305 278 279 286 262 75 331 21 335 343 341 155 152
302 245 7 327 216 345 71 21 291 7 29 83 305 73 259 185 276 257 258 354 89 282 289 56 297 275 306 88 294 277 269 260 271 213 260 311 273 43 91 3 332 313 262 192 179
3 1 25 319 40 73 96 119 25 358 28 281 189 260 219 233 263 233 207 98 127 253 273 150 222 275 185 187 198 245 220 248 269 274 262 263 254 134 227 287 302 284 267 216 213
292 293 90 61 56 345 3 56 185 32 62 308 283 226 212 226 209 208 210 147 196 252 38 281 266 260 283 320 323 245 235 235 246 261 259 244 270 282 299 310 303 288 259 246 211
348 73 4 28 66 20 304 307 293 356 312 272 201 239 226 243 230 229 234 214 196 149 225 254 264 269 268 279 282 268 271 268 248 251 262 282 293 299 305 317 321 311 296 248 226
333 284 164 103 296 295 130 67 301 339 293 187 277 320 256 253 261 283 246 252 275 176 248 206 263 272 273 275 268 276 270 264 258 262 266 275 278 282 293 307 325 320 299 249 224
95 124 280 136 168 284 60 127 233 319 249 253 350 297 242 305 335 310 306 292 279 271 256 246 266 245 282 310 292 270 260 252 255 259 263 268 296 354 308 327 333 324 307 254 178